Weather in Myrne

Ukraine / Zaporizhia Region     47°28′18″N   35°35′53″E
temp.,
°C
wind,
m/s
gust,
m/s
humid.,
%
clouds,
%
prec.,
mm/h
press.,
hPa
HPBL,
m
28 february, sun
sun2823:00+3nnw4895100 0.1 1018405
02:00+2nw4896100 0.1 1018439
05:00+2nw479699 0.0 1018380
08:00+2nnw4796100 0.1 1019374
11:00+2nnw5795100 0.3 1020446
14:00+3nnw4787100 0.4 1020578
17:00+3nw4787100 0.1 1020587
20:00+2nw378998 0.3 1021371
1 march, mon
mon123:000wnw2395100 0.1 102262
02:000wnw2398100 0.1 1022129
05:00−1nw239697 0.1 1023128
08:00+1nw128099 0.1 1025275
11:00+3nnw336885 0.1 1026831
14:00+4nnw346992 0.2 1027732
17:00+3n3570100 0.1 1027619
20:000n358272 0.1 1029122
2 march, tue
tue223:000nnw23800 0.0 103084
02:000nw337433 0.0 103063
05:00−1w337396 0.0 102964
08:00+1w586996 0.0 1028491
11:00+4w686777 0.0 1027835
14:00+5w8116588 0.0 1024871
17:00+4w7147474 0.0 1021626
20:00+4w7158060 0.0 1021467
3 march, wed
wed323:00+3w6119168 0.0 1020251
02:00+2nw499283 0.0 1020298
05:00+2wnw5894100 0.1 1020339
08:00+3nnw7107797 0.1 10221090
11:00+4nnw786698 0.1 10241174
14:00+6nnw675693 0.1 10241271
17:00+4nnw366537 0.0 1025376
20:00+1nnw357923 0.0 1027102
4 march, thu
thu423:000nnw23810 0.0 102759
02:00−1nw11800 0.0 102721
05:00−1wsw12810 0.0 102621
08:00+1sw23750 0.0 1026239
11:00+5sw45540 0.0 1024848
14:00+8sw58510 0.0 10221244
17:00+6sw36620 0.0 1019133
20:00+3sw612730 0.0 1019315